Location: Fort Wayne
(41.1310°N, 85.1290°W)
Time: 07:09:08
(UTC-05:00)

Iridium 37 - Visible Passes

Search period start: 24 November 2014 00:00
Search period end: 04 December 2014 00:00
Orbit: 776 x 779 km, 86.4° (Epoch: 23 November)

Date Brightness Start Highest point End Pass type
(mag) Time Alt. Az. Time Alt. Az. Time Alt. Az.
24 Nov 8.2 06:14:18 10° NNE 06:17:47 18° ENE 06:21:14 10° ESE visible
24 Nov 7.7 19:10:13 10° SSE 19:10:30 12° SSE 19:10:30 12° SSE visible
25 Nov 7.5 18:37:57 10° SE 18:38:21 12° ESE 18:38:21 12° ESE visible
25 Nov 7.5 20:17:01 10° SSW 20:18:54 22° SW 20:18:54 22° SW visible
26 Nov 6.7 06:46:47 10° N 06:51:47 45° E 06:56:45 10° SSE visible
26 Nov 6.1 19:43:12 10° S 19:46:49 46° S 19:46:49 46° S visible
27 Nov 7.8 06:13:47 10° NNE 06:18:04 25° ENE 06:22:19 10° SE visible
27 Nov 5.6 19:09:55 10° SSE 19:14:48 52° E 19:14:48 52° E visible
27 Nov 8.0 20:52:31 10° WSW 20:55:23 18° W 20:55:23 18° W visible
28 Nov 8.4 05:41:32 10° NE 05:44:13 14° ENE 05:46:53 10° ESE visible
28 Nov 6.3 18:37:12 10° SE 18:41:36 29° E 18:42:53 26° ENE visible
28 Nov 7.1 20:17:35 10° SW 20:22:11 32° W 20:23:28 28° NW visible
29 Nov 6.0 06:46:45 10° N 06:51:57 66° E 06:57:07 10° SSE visible
29 Nov 7.0 18:05:20 10° ESE 18:08:22 16° ENE 18:11:04 11° NE visible
29 Nov 6.0 19:43:25 10° SSW 19:48:32 58° W 19:51:39 24° NNW visible
30 Nov 7.1 06:13:31 10° NNE 06:18:19 36° E 06:23:04 10° SSE visible
30 Nov 5.4 19:09:49 10° S 19:15:00 77° E 19:20:01 11° N visible
30 Nov 8.4 20:54:15 10° W 20:56:20 12° WNW 20:58:25 10° NW visible
01 Dec 8.1 05:40:44 10° NNE 05:44:33 20° ENE 05:48:20 10° ESE visible
01 Dec 5.9 18:36:44 10° SSE 18:41:35 41° E 18:46:26 10° NNE visible
01 Dec 7.7 20:18:25 10° SW 20:22:27 22° WNW 20:26:30 10° NNW visible
02 Dec 8.6 05:09:23 10° ENE 05:10:38 11° ENE 05:11:52 10° E visible
02 Dec 5.5 06:46:50 10° N 06:52:04 86° W 06:57:16 10° S visible
02 Dec 6.6 18:04:18 10° SE 18:08:17 23° E 18:12:17 10° NNE visible
02 Dec 6.7 19:43:50 10° SSW 19:48:42 40° W 19:53:37 10° NNW visible
03 Dec 6.4 06:13:25 10° N 06:18:30 52° E 06:23:34 10° SSE visible
03 Dec 5.6 19:09:55 10° S 19:15:06 75° W 19:20:19 10° N visible
